| time (UTC) | temp C | wind direction | speed KPH | gust KPH | rain 1hr cm | rain 24hr cm | rain mn cm | humidity % | barometer mb |
| 20260510093004 | 10 | 136 | 0.0 | 1.6 | 0.00 | 0.46 | 0.00 | 94 | 1011.8 |
| 20260510092504 | 10 | 136 | 0.0 | 1.6 | 0.00 | 0.46 | 0.00 | 94 | 1011.9 |
| 20260510092004 | 10 | 136 | 0.0 | 1.6 | 0.00 | 0.46 | 0.00 | 93 | 1011.9 |
| 20260510091504 | 10 | 136 | 1.6 | 1.6 | 0.00 | 0.46 | 0.00 | 93 | 1011.9 |
| 20260510090504 | 10 | 136 | 1.6 | 3.2 | 0.00 | 0.46 | 0.00 | 93 | 1011.7 |
| 20260510090004 | 10 | 136 | 3.2 | 4.8 | 0.00 | 0.46 | 0.00 | 93 | 1011.7 |
| 20260510085504 | 10 | 136 | 3.2 | 8.0 | 0.00 | 0.46 | 0.00 | 93 | 1011.7 |
| 20260510085004 | 10 | 136 | 3.2 | 4.8 | 0.00 | 0.46 | 0.00 | 93 | 1011.8 |
| 20260510084504 | 10 | 136 | 3.2 | 4.8 | 0.00 | 0.46 | 0.00 | 93 | 1011.8 |
| 20260510084004 | 10 | 136 | 4.8 | 4.8 | 0.00 | 0.46 | 0.00 | 94 | 1011.8 |
| 20260510083004 | 10 | 136 | 4.8 | 8.0 | 0.00 | 0.46 | 0.00 | 94 | 1011.8 |
| 20260510082504 | 10 | 136 | 8.0 | 11.3 | 0.00 | 0.46 | 0.00 | 94 | 1011.9 |
| 20260510082004 | 10 | 137 | 8.0 | 11.3 | 0.00 | 0.46 | 0.00 | 93 | 1012.0 |
| 20260510081504 | 10 | 144 | 4.8 | 8.0 | 0.00 | 0.46 | 0.00 | 93 | 1012.0 |
| 20260510081004 | 10 | 144 | 4.8 | 8.0 | 0.00 | 0.46 | 0.00 | 93 | 1012.1 |
| 20260510080504 | 10 | 299 | 3.2 | 4.8 | 0.00 | 0.46 | 0.00 | 93 | 1012.1 |
| 20260510080004 | 10 | 302 | 3.2 | 4.8 | 0.00 | 0.46 | 0.00 | 93 | 1012.1 |
| 20260510075004 | 10 | 302 | 0.0 | 1.6 | 0.00 | 0.46 | 0.00 | 93 | 1012.2 |
| 20260510074504 | 10 | 302 | 1.6 | 3.2 | 0.00 | 0.46 | 0.00 | 93 | 1012.2 |
| 20260510074004 | 10 | 302 | 1.6 | 3.2 | 0.00 | 0.46 | 0.00 | 93 | 1012.3 |
| 20260510073505 | 10 | 302 | 0.0 | 3.2 | 0.00 | 0.46 | 0.00 | 93 | 1012.4 |
| 20260510073004 | 10 | 302 | 1.6 | 4.8 | 0.00 | 0.46 | 0.00 | 93 | 1012.3 |
| 20260510072004 | 10 | 304 | 4.8 | 14.5 | 0.00 | 0.46 | 0.00 | 93 | 1012.2 |
| 20260510070504 | 10 | 287 | 3.2 | 8.0 | 0.00 | 0.46 | 0.00 | 93 | 1011.9 |
| 20260510070004 | 9 | 266 | 0.0 | 0.0 | 0.00 | 0.46 | 0.00 | 93 | 1011.6 |
| 20260510064504 | 10 | 265 | 1.6 | 3.2 | 0.00 | 0.46 | 0.00 | 93 | 1011.7 |
| 20260510064004 | 9 | 265 | 1.6 | 3.2 | 0.00 | 0.46 | 0.00 | 93 | 1011.8 |
| 20260510063504 | 9 | 265 | 1.6 | 3.2 | 0.00 | 0.46 | 0.00 | 93 | 1011.9 |
| 20260510063004 | 9 | 265 | 3.2 | 3.2 | 0.00 | 0.46 | 0.00 | 93 | 1011.9 |
| 20260510062504 | 9 | 266 | 1.6 | 1.6 | 0.00 | 0.46 | 0.00 | 93 | 1011.8 |
| 20260510062004 | 9 | 266 | 0.0 | 1.6 | 0.00 | 0.46 | 0.00 | 93 | 1011.9 |
| 20260510061505 | 9 | 265 | 1.6 | 3.2 | 0.00 | 0.46 | 0.00 | 93 | 1011.9 |
| 20260510061005 | 9 | 265 | 1.6 | 3.2 | 0.00 | 0.46 | 0.00 | 93 | 1012.0 |
| 20260510060505 | 9 | 265 | 0.0 | 0.0 | 0.00 | 0.46 | 0.00 | 93 | 1012.0 |
| 20260510060004 | 9 | 265 | 1.6 | 3.2 | 0.00 | 0.46 | 0.00 | 93 | 1012.0 |
| 20260510055504 | 9 | 265 | 0.0 | 3.2 | 0.00 | 0.46 | 0.00 | 93 | 1012.1 |
| 20260510055004 | 9 | 265 | 1.6 | 4.8 | 0.00 | 0.46 | 0.00 | 93 | 1012.3 |
| 20260510054504 | 8 | 265 | 4.8 | 4.8 | 0.00 | 0.46 | 0.00 | 93 | 1012.2 |
| 20260510054004 | 8 | 230 | 3.2 | 4.8 | 0.00 | 0.46 | 0.00 | 93 | 1012.0 |
| 20260510053504 | 8 | 200 | 3.2 | 4.8 | 0.00 | 0.46 | 0.00 | 93 | 1011.8 |
| 20260510053004 | 8 | 178 | 1.6 | 3.2 | 0.00 | 0.46 | 0.00 | 93 | 1011.8 |
| 20260510052504 | 8 | 178 | 1.6 | 3.2 | 0.00 | 0.46 | 0.00 | 93 | 1011.7 |
| 20260510052004 | 9 | 178 | 1.6 | 3.2 | 0.00 | 0.46 | 0.00 | 93 | 1011.6 |
| 20260510051004 | 9 | 178 | 0.0 | 0.0 | 0.00 | 0.46 | 0.00 | 93 | 1011.6 |
| 20260510050504 | 9 | 178 | 0.0 | 0.0 | 0.00 | 0.46 | 0.00 | 93 | 1011.6 |
| 20260510050005 | 9 | 178 | 0.0 | 0.0 | 0.00 | 0.46 | 0.00 | 93 | 1011.6 |
| 20260510045504 | 9 | 178 | 0.0 | 1.6 | 0.00 | 0.46 | 0.00 | 93 | 1011.7 |
| 20260510045004 | 10 | 178 | 0.0 | 1.6 | 0.00 | 0.46 | 0.00 | 93 | 1011.7 |
| 20260510044004 | 10 | 178 | 0.0 | 0.0 | 0.00 | 0.46 | 0.00 | 93 | 1011.7 |
| 20260510043504 | 10 | 178 | 0.0 | 1.6 | 0.00 | 0.46 | 0.00 | 93 | 1011.7 |
| 20260510043005 | 10 | 178 | 0.0 | 0.0 | 0.00 | 0.46 | 0.00 | 93 | 1011.7 |
| 20260510042504 | 10 | 178 | 0.0 | 0.0 | 0.00 | 0.46 | 0.00 | 93 | 1011.7 |
| 20260510042004 | 10 | 178 | 0.0 | 1.6 | 0.00 | 0.46 | 0.00 | 93 | 1011.8 |
| 20260510041504 | 10 | 178 | 0.0 | 3.2 | 0.00 | 0.46 | 0.00 | 93 | 1011.8 |
| 20260510041004 | 10 | 178 | 0.0 | 1.6 | 0.00 | 0.46 | 0.00 | 93 | 1011.7 |
| 20260510040504 | 10 | 178 | 0.0 | 1.6 | 0.00 | 0.46 | 0.00 | 93 | 1011.7 |
| 20260510040004 | 10 | 178 | 1.6 | 3.2 | 0.00 | 0.46 | 0.00 | 93 | 1011.7 |
| 20260510035504 | 10 | 178 | 0.0 | 1.6 | 0.00 | 0.46 | 0.46 | 93 | 1011.7 |
| 20260510034504 | 10 | 178 | 0.0 | 1.6 | 0.00 | 0.46 | 0.46 | 93 | 1011.7 |
| 20260510034004 | 10 | 178 | 0.0 | 1.6 | 0.00 | 0.46 | 0.46 | 93 | 1011.6 |
| 20260510033504 | 10 | 178 | 0.0 | 0.0 | 0.00 | 0.46 | 0.46 | 92 | 1011.7 |
| 20260510033004 | 10 | 178 | 0.0 | 1.6 | 0.00 | 0.46 | 0.46 | 92 | 1011.6 |
| 20260510032004 | 10 | 178 | 0.0 | 3.2 | 0.00 | 0.46 | 0.46 | 92 | 1011.4 |
| 20260510031503 | 10 | 178 | 1.6 | 1.6 | 0.00 | 0.46 | 0.46 | 93 | 1011.4 |
| 20260510030505 | 10 | 178 | 0.0 | 0.0 | 0.00 | 0.46 | 0.46 | 92 | 1011.4 |
| 20260510030004 | 10 | 178 | 0.0 | 0.0 | 0.00 | 0.46 | 0.46 | 92 | 1011.4 |
| 20260510025003 | 10 | 178 | 0.0 | 1.6 | 0.00 | 0.46 | 0.46 | 92 | 1011.4 |
| 20260510023505 | 11 | 178 | 0.0 | 1.6 | 0.00 | 0.46 | 0.46 | 92 | 1011.4 |
| 20260510022504 | 11 | 178 | 1.6 | 3.2 | 0.00 | 0.46 | 0.46 | 92 | 1011.2 |
| 20260510022003 | 11 | 178 | 0.0 | 1.6 | 0.00 | 0.46 | 0.46 | 92 | 1011.3 |
| 20260510021003 | 11 | 178 | 0.0 | 1.6 | 0.00 | 0.46 | 0.46 | 92 | 1011.2 |
| 20260510020504 | 11 | 178 | 1.6 | 3.2 | 0.00 | 0.46 | 0.46 | 92 | 1011.2 |
| 20260510020005 | 11 | 178 | 1.6 | 1.6 | 0.00 | 0.46 | 0.46 | 92 | 1011.2 |
| 20260510015504 | 11 | 178 | 1.6 | 4.8 | 0.00 | 0.46 | 0.46 | 92 | 1011.1 |
| 20260510014504 | 11 | 180 | 3.2 | 4.8 | 0.00 | 0.46 | 0.46 | 91 | 1011.3 |
| 20260510014004 | 11 | 180 | 0.0 | 1.6 | 0.00 | 0.46 | 0.46 | 91 | 1011.2 |
| 20260510013503 | 11 | 180 | 0.0 | 1.6 | 0.00 | 0.46 | 0.46 | 91 | 1011.2 |
| 20260510013004 | 11 | 180 | 0.0 | 1.6 | 0.00 | 0.46 | 0.46 | 91 | 1011.1 |
| 20260510012504 | 12 | 180 | 1.6 | 1.6 | 0.00 | 0.46 | 0.46 | 91 | 1011.1 |
| 20260510012004 | 12 | 180 | 0.0 | 1.6 | 0.00 | 0.46 | 0.46 | 91 | 1011.1 |
| 20260510011504 | 12 | 180 | 1.6 | 1.6 | 0.00 | 0.46 | 0.46 | 90 | 1011.0 |
| 20260510011004 | 12 | 180 | 1.6 | 3.2 | 0.00 | 0.46 | 0.46 | 90 | 1010.9 |
| 20260510010504 | 12 | 180 | 1.6 | 3.2 | 0.00 | 0.46 | 0.46 | 90 | 1010.9 |
| 20260510005505 | 12 | 180 | 1.6 | 3.2 | 0.00 | 0.46 | 0.46 | 89 | 1010.7 |
| 20260510005004 | 12 | 180 | 1.6 | 4.8 | 0.00 | 0.46 | 0.46 | 89 | 1010.7 |
| 20260510004504 | 12 | 180 | 1.6 | 3.2 | 0.00 | 0.46 | 0.46 | 89 | 1010.6 |
| 20260510003504 | 12 | 180 | 1.6 | 3.2 | 0.00 | 0.46 | 0.46 | 88 | 1010.6 |
| 20260510003004 | 13 | 180 | 0.0 | 3.2 | 0.00 | 0.46 | 0.46 | 87 | 1010.4 |
| 20260510002504 | 13 | 180 | 1.6 | 3.2 | 0.00 | 0.46 | 0.46 | 87 | 1010.3 |
| 20260510002004 | 13 | 180 | 1.6 | 3.2 | 0.00 | 0.46 | 0.46 | 87 | 1010.4 |
| 20260510001504 | 13 | 180 | 1.6 | 3.2 | 0.00 | 0.46 | 0.46 | 86 | 1010.2 |
| 20260510001004 | 13 | 180 | 1.6 | 3.2 | 0.00 | 0.46 | 0.46 | 85 | 1010.1 |
| 20260510000504 | 13 | 180 | 1.6 | 3.2 | 0.00 | 0.46 | 0.46 | 85 | 1010.1 |
| 20260510000004 | 13 | 180 | 1.6 | 1.6 | 0.00 | 0.46 | 0.46 | 84 | 1010.1 |
| 20260509235504 | 14 | 180 | 0.0 | 0.0 | 0.00 | 0.46 | 0.46 | 83 | 1010.1 |
| 20260509234504 | 14 | 180 | 1.6 | 3.2 | 0.00 | 0.46 | 0.46 | 81 | 1010.1 |
| 20260509234004 | 15 | 180 | 0.0 | 1.6 | 0.00 | 0.46 | 0.46 | 81 | 1010.1 |
| 20260509233504 | 15 | 180 | 0.0 | 3.2 | 0.00 | 0.46 | 0.46 | 80 | 1010.1 |
| 20260509233004 | 15 | 180 | 3.2 | 4.8 | 0.00 | 0.46 | 0.46 | 80 | 1010.1 |
| 20260509232504 | 15 | 180 | 4.8 | 4.8 | 0.00 | 0.46 | 0.46 | 79 | 1010.0 |
| 20260509232004 | 15 | 185 | 0.0 | 3.2 | 0.00 | 0.46 | 0.46 | 80 | 1010.0 |
| 20260509231504 | 15 | 185 | 1.6 | 4.8 | 0.00 | 0.46 | 0.46 | 80 | 1010.0 |
| 20260509231004 | 15 | 185 | 0.0 | 4.8 | 0.00 | 0.46 | 0.46 | 80 | 1010.0 |
| 20260509230504 | 15 | 185 | 1.6 | 4.8 | 0.00 | 0.46 | 0.46 | 80 | 1010.0 |
| 20260509230004 | 15 | 185 | 1.6 | 4.8 | 0.00 | 0.46 | 0.46 | 81 | 1010.0 |
| 20260509225504 | 15 | 184 | 1.6 | 4.8 | 0.00 | 0.46 | 0.46 | 82 | 1009.9 |
| 20260509225003 | 15 | 186 | 3.2 | 4.8 | 0.00 | 0.46 | 0.46 | 81 | 1009.9 |
| 20260509224503 | 15 | 187 | 3.2 | 4.8 | 0.00 | 0.46 | 0.46 | 83 | 1010.0 |
| 20260509223504 | 15 | 195 | 3.2 | 4.8 | 0.00 | 0.46 | 0.46 | 83 | 1010.0 |
| 20260509223004 | 14 | 236 | 1.6 | 4.8 | 0.00 | 0.46 | 0.46 | 84 | 1010.0 |
| 20260509222004 | 14 | 232 | 3.2 | 4.8 | 0.00 | 0.46 | 0.46 | 85 | 1010.2 |
| 20260509221504 | 13 | 225 | 3.2 | 4.8 | 0.00 | 0.46 | 0.46 | 85 | 1010.3 |
| 20260509221003 | 13 | 262 | 3.2 | 4.8 | 0.00 | 0.46 | 0.46 | 85 | 1010.3 |
| 20260509220504 | 13 | 262 | 3.2 | 4.8 | 0.00 | 0.46 | 0.46 | 85 | 1010.2 |
| 20260509220004 | 13 | 266 | 1.6 | 4.8 | 0.00 | 0.46 | 0.46 | 85 | 1010.2 |
| 20260509215504 | 13 | 264 | 1.6 | 4.8 | 0.00 | 0.46 | 0.46 | 86 | 1010.2 |
| 20260509215003 | 13 | 261 | 1.6 | 4.8 | 0.00 | 0.46 | 0.46 | 85 | 1010.2 |
| 20260509214505 | 13 | 260 | 3.2 | 4.8 | 0.00 | 0.46 | 0.46 | 84 | 1010.2 |
| 20260509213504 | 13 | 236 | 3.2 | 4.8 | 0.00 | 0.46 | 0.46 | 86 | 1010.1 |
| 20260509213004 | 13 | 236 | 1.6 | 4.8 | 0.00 | 0.46 | 0.46 | 87 | 1010.2 |
| 20260509212504 | 13 | 237 | 3.2 | 4.8 | 0.00 | 0.46 | 0.46 | 88 | 1010.2 |
| 20260509212004 | 13 | 240 | 3.2 | 8.0 | 0.00 | 0.46 | 0.46 | 89 | 1010.3 |
| 20260509211504 | 13 | 234 | 1.6 | 4.8 | 0.00 | 0.46 | 0.46 | 89 | 1010.3 |
| 20260509211004 | 13 | 247 | 3.2 | 4.8 | 0.00 | 0.46 | 0.46 | 89 | 1010.5 |
| 20260509210504 | 13 | 294 | 3.2 | 4.8 | 0.00 | 0.46 | 0.46 | 88 | 1010.6 |
| 20260509205504 | 13 | 296 | 3.2 | 9.7 | 0.00 | 0.46 | 0.46 | 89 | 1010.5 |
| 20260509204505 | 13 | 289 | 6.4 | 11.3 | 0.03 | 0.46 | 0.46 | 89 | 1010.7 |
| 20260509204009 | 13 | 284 | 6.4 | 11.3 | 0.03 | 0.46 | 0.46 | 89 | 1010.8 |
| 20260509203504 | 13 | 283 | 4.8 | 9.7 | 0.03 | 0.46 | 0.46 | 90 | 1010.7 |
| 20260509203004 | 13 | 281 | 4.8 | 4.8 | 0.03 | 0.46 | 0.46 | 90 | 1010.6 |
| 20260509202006 | 12 | 222 | 3.2 | 4.8 | 0.03 | 0.46 | 0.46 | 90 | 1010.6 |
| 20260509201006 | 12 | 220 | 3.2 | 4.8 | 0.05 | 0.46 | 0.46 | 90 | 1010.6 |
| 20260509200504 | 12 | 219 | 1.6 | 4.8 | 0.05 | 0.46 | 0.46 | 90 | 1010.5 |
| 20260509200004 | 12 | 219 | 0.0 | 4.8 | 0.08 | 0.46 | 0.46 | 90 | 1010.6 |
| 20260509195504 | 12 | 219 | 1.6 | 3.2 | 0.08 | 0.46 | 0.46 | 91 | 1010.7 |
| 20260509195004 | 12 | 219 | 3.2 | 4.8 | 0.10 | 0.46 | 0.46 | 91 | 1010.8 |
| 20260509194504 | 12 | 175 | 1.6 | 4.8 | 0.08 | 0.43 | 0.43 | 91 | 1010.9 |
| 20260509194004 | 12 | 171 | 1.6 | 4.8 | 0.10 | 0.43 | 0.43 | 91 | 1011.0 |
| 20260509193504 | 12 | 170 | 3.2 | 4.8 | 0.10 | 0.43 | 0.43 | 91 | 1011.0 |
| 20260509193004 | 12 | 170 | 3.2 | 4.8 | 0.10 | 0.43 | 0.43 | 91 | 1011.1 |
| 20260509192005 | 12 | 173 | 0.0 | 3.2 | 0.10 | 0.43 | 0.43 | 91 | 1011.3 |
| 20260509191505 | 12 | 173 | 0.0 | 4.8 | 0.10 | 0.43 | 0.43 | 91 | 1011.6 |
| 20260509190005 | 12 | 167 | 4.8 | 8.0 | 0.08 | 0.38 | 0.38 | 91 | 1012.0 |
| 20260509185504 | 12 | 195 | 3.2 | 4.8 | 0.08 | 0.38 | 0.38 | 91 | 1011.8 |
| 20260509185005 | 12 | 200 | 1.6 | 4.8 | 0.08 | 0.36 | 0.36 | 90 | 1011.9 |
| 20260509184504 | 12 | 208 | 1.6 | 4.8 | 0.08 | 0.36 | 0.36 | 90 | 1012.1 |
| 20260509184004 | 12 | 208 | 1.6 | 4.8 | 0.05 | 0.33 | 0.33 | 90 | 1012.1 |
| 20260509183504 | 12 | 228 | 1.6 | 4.8 | 0.08 | 0.33 | 0.33 | 90 | 1012.0 |
| 20260509183004 | 12 | 229 | 1.6 | 4.8 | 0.10 | 0.33 | 0.33 | 90 | 1012.0 |
| 20260509182504 | 12 | 225 | 1.6 | 3.2 | 0.13 | 0.33 | 0.33 | 90 | 1012.0 |
| 20260509182005 | 12 | 225 | 4.8 | 4.8 | 0.15 | 0.33 | 0.33 | 90 | 1012.1 |
| 20260509181503 | 12 | 227 | 4.8 | 9.7 | 0.18 | 0.33 | 0.33 | 90 | 1012.1 |
| 20260509175504 | 12 | 263 | 1.6 | 4.8 | 0.23 | 0.30 | 0.30 | 89 | 1011.8 |
| 20260509175004 | 12 | 265 | 4.8 | 9.7 | 0.23 | 0.28 | 0.28 | 89 | 1011.8 |
| 20260509174504 | 12 | 266 | 3.2 | 9.7 | 0.23 | 0.28 | 0.28 | 89 | 1011.9 |
| 20260509174004 | 12 | 269 | 3.2 | 4.8 | 0.23 | 0.28 | 0.28 | 89 | 1011.9 |
| 20260509173504 | 12 | 269 | 4.8 | 9.7 | 0.23 | 0.25 | 0.25 | 89 | 1011.9 |
| 20260509173004 | 13 | 291 | 3.2 | 4.8 | 0.20 | 0.23 | 0.23 | 89 | 1011.8 |
| 20260509172504 | 13 | 301 | 3.2 | 8.0 | 0.20 | 0.20 | 0.20 | 89 | 1011.6 |
| 20260509172004 | 13 | 304 | 3.2 | 8.0 | 0.18 | 0.18 | 0.18 | 88 | 1011.6 |
| 20260509171503 | 13 | 245 | 3.2 | 9.7 | 0.15 | 0.15 | 0.15 | 88 | 1011.8 |
| 20260509171004 | 13 | 240 | 4.8 | 9.7 | 0.13 | 0.13 | 0.13 | 88 | 1012.0 |
| 20260509170504 | 13 | 226 | 3.2 | 12.9 | 0.10 | 0.10 | 0.10 | 88 | 1012.0 |
| 20260509170004 | 13 | 244 | 8.0 | 12.9 | 0.08 | 0.08 | 0.08 | 88 | 1012.0 |
| 20260509164004 | 13 | 233 | 4.8 | 14.5 | 0.05 | 0.05 | 0.05 | 85 | 1012.0 |
| 20260509163504 | 13 | 226 | 8.0 | 16.1 | 0.03 | 0.03 | 0.03 | 84 | 1012.1 |
| 20260509163004 | 14 | 234 | 8.0 | 14.5 | 0.03 | 0.03 | 0.03 | 83 | 1012.2 |
| 20260509162504 | 14 | 204 | 4.8 | 11.3 | 0.00 | 0.00 | 0.00 | 83 | 1012.1 |
| 20260509162003 | 14 | 226 | 4.8 | 12.9 | 0.00 | 0.00 | 0.00 | 83 | 1012.1 |
| 20260509161503 | 14 | 184 | 4.8 | 12.9 | 0.00 | 0.00 | 0.00 | 82 | 1012.0 |
| 20260509161003 | 14 | 200 | 4.8 | 14.5 | 0.00 | 0.00 | 0.00 | 82 | 1012.1 |
| 20260509160503 | 14 | 157 | 4.8 | 11.3 | 0.00 | 0.00 | 0.00 | 81 | 1012.2 |
| 20260509160004 | 14 | 187 | 3.2 | 8.0 | 0.00 | 0.00 | 0.00 | 82 | 1012.3 |
| 20260509155504 | 14 | 226 | 4.8 | 9.7 | 0.00 | 0.00 | 0.00 | 81 | 1012.3 |
| 20260509155004 | 13 | 188 | 3.2 | 11.3 | 0.00 | 0.00 | 0.00 | 81 | 1012.3 |
| 20260509154504 | 13 | 192 | 3.2 | 9.7 | 0.00 | 0.00 | 0.00 | 81 | 1012.4 |
| 20260509154005 | 13 | 179 | 3.2 | 11.3 | 0.00 | 0.00 | 0.00 | 81 | 1012.3 |
| 20260509153004 | 13 | 186 | 6.4 | 16.1 | 0.00 | 0.00 | 0.00 | 81 | 1012.4 |
| 20260509152505 | 13 | 237 | 4.8 | 9.7 | 0.00 | 0.00 | 0.00 | 82 | 1012.4 |
| 20260509152004 | 13 | 178 | 1.6 | 8.0 | 0.00 | 0.00 | 0.00 | 82 | 1012.3 |
| 20260509151504 | 13 | 158 | 4.8 | 9.7 | 0.00 | 0.00 | 0.00 | 82 | 1012.3 |
| 20260509151004 | 13 | 144 | 3.2 | 9.7 | 0.00 | 0.00 | 0.00 | 82 | 1012.2 |
| 20260509150504 | 13 | 149 | 4.8 | 8.0 | 0.00 | 0.00 | 0.00 | 81 | 1012.1 |
| 20260509145504 | 13 | 157 | 3.2 | 8.0 | 0.00 | 0.00 | 0.00 | 82 | 1012.1 |
| 20260509145004 | 13 | 161 | 3.2 | 9.7 | 0.00 | 0.00 | 0.00 | 81 | 1012.2 |
| 20260509144504 | 13 | 165 | 4.8 | 9.7 | 0.00 | 0.00 | 0.00 | 81 | 1012.4 |
| 20260509144005 | 13 | 167 | 4.8 | 8.0 | 0.00 | 0.00 | 0.00 | 81 | 1012.3 |
| 20260509143004 | 13 | 202 | 3.2 | 8.0 | 0.00 | 0.00 | 0.00 | 81 | 1012.2 |
| 20260509142504 | 13 | 201 | 1.6 | 4.8 | 0.00 | 0.00 | 0.00 | 81 | 1012.3 |
| 20260509142004 | 13 | 205 | 1.6 | 4.8 | 0.00 | 0.00 | 0.00 | 81 | 1012.3 |
| 20260509141504 | 13 | 205 | 3.2 | 4.8 | 0.00 | 0.00 | 0.00 | 80 | 1012.2 |
| 20260509141007 | 13 | 179 | 3.2 | 8.0 | 0.00 | 0.00 | 0.00 | 81 | 1012.2 |
| 20260509140504 | 13 | 177 | 3.2 | 9.7 | 0.00 | 0.00 | 0.00 | 80 | 1012.3 |
| 20260509140005 | 13 | 177 | 1.6 | 4.8 | 0.00 | 0.00 | 0.00 | 80 | 1012.2 |
| 20260509135504 | 13 | 176 | 3.2 | 4.8 | 0.00 | 0.00 | 0.00 | 80 | 1012.0 |
| 20260509135004 | 13 | 177 | 4.8 | 12.9 | 0.00 | 0.00 | 0.00 | 80 | 1012.0 |
| 20260509134004 | 13 | 168 | 4.8 | 11.3 | 0.00 | 0.00 | 0.00 | 80 | 1011.9 |
| 20260509133504 | 13 | 178 | 4.8 | 9.7 | 0.00 | 0.00 | 0.00 | 80 | 1012.0 |
| 20260509132505 | 13 | 148 | 4.8 | 11.3 | 0.00 | 0.00 | 0.00 | 81 | 1012.0 |
| 20260509132004 | 13 | 94 | 1.6 | 4.8 | 0.00 | 0.00 | 0.00 | 82 | 1012.0 |
| 20260509131503 | 12 | 92 | 1.6 | 4.8 | 0.00 | 0.00 | 0.00 | 82 | 1012.0 |
| 20260509130504 | 12 | 65 | 3.2 | 4.8 | 0.00 | 0.00 | 0.00 | 83 | 1012.1 |
| 20260509130004 | 12 | 65 | 3.2 | 4.8 | 0.00 | 0.00 | 0.00 | 83 | 1012.0 |
| 20260509124504 | 12 | 65 | 1.6 | 4.8 | 0.00 | 0.00 | 0.00 | 83 | 1012.2 |
| 20260509124004 | 12 | 65 | 1.6 | 3.2 | 0.00 | 0.00 | 0.00 | 83 | 1012.3 |
| 20260509123503 | 12 | 65 | 1.6 | 3.2 | 0.00 | 0.00 | 0.00 | 83 | 1012.3 |
| 20260509122004 | 11 | 65 | 1.6 | 3.2 | 0.00 | 0.00 | 0.00 | 84 | 1012.4 |
| 20260509121504 | 11 | 65 | 1.6 | 3.2 | 0.00 | 0.00 | 0.00 | 84 | 1012.4 |
| 20260509121004 | 11 | 65 | 1.6 | 3.2 | 0.00 | 0.00 | 0.00 | 84 | 1012.4 |
| 20260509120504 | 11 | 65 | 1.6 | 3.2 | 0.00 | 0.00 | 0.00 | 84 | 1012.4 |
| 20260509120004 | 11 | 65 | 0.0 | 1.6 | 0.00 | 0.00 | 0.00 | 84 | 1012.4 |
| 20260509115506 | 11 | 65 | 1.6 | 3.2 | 0.00 | 0.00 | 0.00 | 84 | 1012.3 |
| 20260509115004 | 11 | 65 | 1.6 | 3.2 | 0.00 | 0.00 | 0.00 | 84 | 1012.3 |
| 20260509114504 | 11 | 65 | 1.6 | 4.8 | 0.00 | 0.00 | 0.00 | 85 | 1012.2 |
| 20260509114004 | 11 | 65 | 3.2 | 4.8 | 0.00 | 0.00 | 0.00 | 85 | 1012.2 |
| 20260509113503 | 11 | 61 | 1.6 | 4.8 | 0.00 | 0.00 | 0.00 | 86 | 1012.0 |
| 20260509112504 | 10 | 61 | 3.2 | 4.8 | 0.00 | 0.00 | 0.00 | 85 | 1012.3 |
| 20260509112004 | 10 | 61 | 3.2 | 4.8 | 0.00 | 0.00 | 0.00 | 85 | 1012.3 |
| 20260509111503 | 10 | 61 | 1.6 | 4.8 | 0.00 | 0.00 | 0.00 | 85 | 1012.2 |
| 20260509111003 | 10 | 61 | 3.2 | 4.8 | 0.00 | 0.00 | 0.00 | 85 | 1012.0 |
| 20260509110504 | 10 | 61 | 3.2 | 4.8 | 0.00 | 0.00 | 0.00 | 85 | 1012.1 |
| 20260509110004 | 10 | 61 | 3.2 | 4.8 | 0.00 | 0.00 | 0.00 | 85 | 1012.1 |
| 20260509105504 | 10 | 61 | 6.4 | 9.7 | 0.00 | 0.00 | 0.00 | 86 | 1011.8 |
| 20260509105004 | 10 | 56 | 4.8 | 4.8 | 0.00 | 0.00 | 0.00 | 86 | 1011.8 |
| 20260509104504 | 10 | 56 | 3.2 | 4.8 | 0.00 | 0.00 | 0.00 | 85 | 1011.9 |
| 20260509104004 | 10 | 56 | 4.8 | 8.0 | 0.00 | 0.00 | 0.00 | 85 | 1011.8 |
| 20260509103004 | 10 | 63 | 0.0 | 3.2 | 0.00 | 0.00 | 0.00 | 85 | 1012.0 |
| 20260509102504 | 10 | 63 | 1.6 | 3.2 | 0.00 | 0.00 | 0.00 | 85 | 1012.0 |
| 20260509102004 | 10 | 63 | 4.8 | 8.0 | 0.00 | 0.00 | 0.00 | 85 | 1012.0 |
| 20260509101503 | 10 | 61 | 3.2 | 4.8 | 0.00 | 0.00 | 0.00 | 84 | 1011.8 |
| 20260509101004 | 10 | 61 | 4.8 | 9.7 | 0.00 | 0.00 | 0.00 | 84 | 1011.8 |
| 20260509100504 | 10 | 62 | 8.0 | 9.7 | 0.00 | 0.00 | 0.00 | 84 | 1011.8 |
| 20260509100005 | 10 | 59 | 3.2 | 4.8 | 0.00 | 0.00 | 0.00 | 84 | 1011.9 |
| 20260509095503 | 10 | 57 | 1.6 | 4.8 | 0.00 | 0.00 | 0.00 | 84 | 1012.0 |
| 20260509095003 | 10 | 57 | 1.6 | 4.8 | 0.00 | 0.00 | 0.00 | 84 | 1012.0 |
| 20260509094504 | 10 | 57 | 3.2 | 4.8 | 0.00 | 0.00 | 0.00 | 84 | 1012.0 |
| 20260509094004 | 10 | 57 | 3.2 | 4.8 | 0.00 | 0.00 | 0.00 | 84 | 1012.1 |